Location: Strawberry
(45.6646°N, 111.9596°W)
Time: 12:00:02
(UTC+00:00)

Transit 4A - Pass Details

Date: 10 October 2022
Orbit: 871 x 973 km, 66.8° (Epoch: 26 November)

Event Time Altitude Azimuth Distance (km) Brightness Sun altitude
Rises 11:41:53 0° 329° (NNW) 3,498 10.7 -21.0°
Reaches altitude 10° 11:44:31 10° 336° (NNW) 2,545 10.1 -20.5°
Maximum altitude 11:50:08 46° 49° (NE) 1,166 8.8 -19.6°
Drops below altitude 10° 11:55:42 10° 122° (ESE) 2,516 10.8 -18.6°
Sets 11:58:17 0° 129° (SE) 3,453 11.5 -18.2°
